Location: Davayat
(45.9471°N, 3.1105°E)
Time: 18:27:33
(UTC+00:00)

Lacrosse 4 Rocket - Pass Details

Date: 01 December 2020
Orbit: 537 x 620 km, 68.0° (Epoch: 22 January)

Event Time Altitude Azimuth Distance (km) Brightness Sun altitude
Rises 17:43:45 0° 168° (SSE) 2,679 4.9 -16.7°
Reaches altitude 10° 17:46:31 10° 147° (SSE) 1,800 3.8 -17.2°
Enters shadow 17:47:08 12° 140° (SE) 1,655 3.5 -17.3°
